Weather in Kubovaya

Russia / Novosibirsk Oblast     55°15′37″N   82°54′51″E
temp.,
°C
wind,
m/s
gust,
m/s
humid.,
%
clouds,
%
prec.,
mm/h
press.,
hPa
HPBL,
m
28 february, sun
sun2801:00−29ssw349984 0.0 103866
04:00−30ssw349981 0.0 103868
07:00−30s349866 0.0 103968
10:00−27s469666 0.0 1037183
13:00−20sse469366 0.0 1035350
16:00−17sse368990 0.0 1032483
19:00−17ese239495 0.0 102852
22:00−15ese379598 0.3 1026187
1 march, mon
mon101:00−14ese389599 0.4 1023204
04:00−11ese4894100 0.3 1019321
07:00−9se4895100 1.1 1015389
10:00−7ese5895100 1.4 1012455
13:00−4se5795100 2.8 1009523
16:00−3ene5897100 3.8 1007341
19:00−5ne5896100 6.1 1007283
22:00−9nne5994100 0.9 1007294
2 march, tue
tue201:00−11nne4895100 1.3 1009286
04:00−13nne369593 0.1 1011251
07:00−17nne239790 0.3 101473
10:00−16ne239592 0.1 1016144
13:00−12w119092 0.2 1018355
16:00−11wsw2388100 0.2 1018486
19:00−13wsw1196100 0.3 101820
22:00−14ese119689 0.1 101720
3 march, wed
wed301:00−15se129687 0.2 101720
04:00−15s1197100 0.1 101520
07:00−15e119699 0.3 101620
10:00−13ne119599 0.1 101694
13:00−9n0089100 0.4 1016370
16:00−8wnw2290100 0.3 1017352
19:00−12wsw239698 0.6 101974
22:00−14sw349784 0.1 102182
4 march, thu
thu401:00−16ssw369782 0.1 1023100
04:00−19s369994 0.1 1023114
07:00−21s479775 0.1 1024141
10:00−17s5109377 0.0 1024271
13:00−11s599187 0.0 1022418
16:00−8s61090100 0.0 1020601
19:00−8s51290100 0.0 1019512
22:00−8s61488100 0.0 1017460